Wenatchee, WA

3:38 PM PST on November 20, 2017 (GMT -0800)
Pangborn Memorial

Weather History for KEAT - December, 2013

Change the Weather History Date:

Friday, December 20, 2013

  Actual Average Record
Temperature  
Mean Temperature 24 °F 25 °F  
Max Temperature 28 °F 30 °F 49 °F (1966)
Min Temperature 19 °F 19 °F -7 °F (2008)
Degree Days  
Heating Degree Days 41 40  
Month to date heating degree days 812 777  
Since 1 July heating degree days 2653 2659  
Cooling Degree Days 0 0  
Month to date cooling degree days 0 0  
Year to date cooling degree days 383 249  
Moisture  
Dew Point 16 °F    
Average Humidity 74    
Maximum Humidity 88    
Minimum Humidity 51    
Precipitation  
Precipitation 0.31 in 0.08 in 0.36 in (1970)
Month to date precipitation 0.60 1.65  
Year to date precipitation 12.90 16.20  
Snow  
Snow 2.90 in 0.60 in - ()
Month to date snowfall 3.4 10.2  
Since 1 July snowfall 6.4 18.1  
Snow Depth 3.00 in    
Sea Level Pressure  
Sea Level Pressure 29.83 in    
Wind  
Wind Speed 2 mph (NE)    
Max Wind Speed 12 mph    
Max Gust Speed -    
Visibility 9 miles    
Events Snow    
T = Trace of Precipitation, MM = Missing Value Source: NWS Daily Summary

Daily Weather History Graph

Daily Weather History Graph

Search for Another Location

Airport or City:

Trip Planner

Search our weather history database for the weather conditions in past years. The results will help you decide how hot, cold, wet, or windy it might be!

Date:

Astronomy

Dec. 20, 2013 Rise Set
Actual Time 7:45 AM PST 4:12 PM PST
Civil Twilight 7:09 AM PST 4:48 PM PST
Nautical Twilight 6:29 AM PST 5:27 PM PST
Astronomical Twilight 5:52 AM PST 6:04 PM PST
Moon 7:50 PM PST 9:30 AM PST
Length of Visible Light 9h 39m
Length of Day
8h 27m
Waning Gibbous, 90% of the Moon is Illuminated
Dec 20
Waning Gibbous
Dec 25
Last Quarter
Jan 1
New
Jan 7
First Quarter
Jan 15
Full

Hourly Weather History & Observations

Time (PST) Temp. Windchill Dew Point Humidity Pressure Visibility Wind Dir Wind Speed Gust Speed Precip Events Conditions
12:55 AM 24.1 °F - 12.0 °F 60% 30.03 in 10.0 mi Calm Calm - N/A   Clear
1:55 AM 21.9 °F - 12.0 °F 66% 30.08 in 10.0 mi Calm Calm - N/A   Clear
2:55 AM 21.9 °F - 12.0 °F 66% 30.06 in 10.0 mi Calm Calm - N/A   Clear
3:55 AM 21.0 °F - 12.0 °F 68% 30.06 in 10.0 mi Calm Calm - N/A   Clear
4:55 AM 19.9 °F - 12.9 °F 74% 30.04 in 10.0 mi Calm Calm - N/A   Clear
5:55 AM 21.9 °F - 14.0 °F 72% 30.01 in 10.0 mi Calm Calm - N/A   Mostly Cloudy
6:55 AM 23.0 °F - 14.0 °F 68% 29.99 in 10.0 mi Calm Calm - N/A   Overcast
7:55 AM 23.0 °F - 15.1 °F 72% 29.98 in 10.0 mi Calm Calm - N/A   Mostly Cloudy
8:55 AM 23.0 °F - 15.1 °F 72% 29.95 in 10.0 mi Calm Calm - N/A   Overcast
9:55 AM 24.1 °F 19.7 °F 15.1 °F 69% 29.92 in 10.0 mi SE 3.5 mph - N/A   Partly Cloudy
10:55 AM 25.0 °F 19.3 °F 14.0 °F 63% 29.88 in 10.0 mi East 4.6 mph - N/A   Clear
11:55 AM 26.1 °F 17.6 °F 12.0 °F 55% 29.82 in 10.0 mi East 8.1 mph - N/A   Mostly Cloudy
12:55 PM 28.0 °F 18.1 °F 12.0 °F 51% 29.74 in 10.0 mi SE 11.5 mph - N/A   Mostly Cloudy
1:55 PM 28.0 °F - 12.9 °F 53% 29.75 in 10.0 mi Calm Calm - N/A   Overcast
2:13 PM 26.6 °F - 15.8 °F 64% 29.68 in 2.5 mi Calm Calm - 0.00 in Snow Light Snow
2:32 PM 26.6 °F 20.0 °F 17.6 °F 69% 29.68 in 3.0 mi WNW 5.8 mph - 0.00 in Snow Light Snow
2:41 PM 24.8 °F 16.1 °F 19.4 °F 80% 29.68 in 5.0 mi West 8.1 mph - 0.00 in Snow Light Snow
2:55 PM 25.0 °F 17.1 °F 19.9 °F 81% 29.72 in 7.0 mi WNW 6.9 mph - 0.00 in   Overcast
3:55 PM 25.0 °F 19.3 °F 19.0 °F 78% 29.70 in 10.0 mi WNW 4.6 mph - 0.00 in   Overcast
4:55 PM 24.1 °F 18.2 °F 19.0 °F 81% 29.69 in 10.0 mi WNW 4.6 mph - N/A   Partly Cloudy
5:55 PM 21.9 °F - 18.0 °F 85% 29.68 in 10.0 mi Calm Calm - N/A   Mostly Cloudy
6:04 PM 21.2 °F - 17.6 °F 86% 29.62 in 10.0 mi Calm Calm - N/A   Mostly Cloudy
6:26 PM 21.2 °F 16.4 °F 17.6 °F 86% 29.64 in 10.0 mi East 3.5 mph - N/A   Partly Cloudy
6:55 PM 21.0 °F - 17.1 °F 85% 29.71 in 10.0 mi Calm Calm - N/A   Clear
7:55 PM 21.0 °F - 18.0 °F 88% 29.74 in 10.0 mi Calm Calm - N/A   Scattered Clouds
8:55 PM 19.9 °F 13.4 °F 16.0 °F 85% 29.77 in 10.0 mi ENE 4.6 mph - N/A   Scattered Clouds
9:55 PM 21.9 °F - 17.1 °F 82% 29.80 in 10.0 mi Calm Calm - N/A   Partly Cloudy
10:55 PM 19.9 °F 14.9 °F 15.1 °F 81% 29.82 in 10.0 mi NNE 3.5 mph - N/A   Partly Cloudy
11:32 PM 19.4 °F 14.3 °F 15.8 °F 86% 29.80 in 10.0 mi NNE 3.5 mph - N/A   Overcast
11:55 PM 21.0 °F 16.2 °F 17.1 °F 85% 29.86 in 10.0 mi NE 3.5 mph - N/A   Overcast